Ames, IA

7:34 PM CDT on June 28, 2017 (GMT -0500)
Ames Municipal

Weather History for KAMW - October, 2014

Change the Weather History Date:

Wednesday, October 15, 2014

  Actual Average Record
Temperature  
Mean Temperature 53 °F 51 °F  
Max Temperature 68 °F 63 °F 84 °F (1999)
Min Temperature 37 °F 39 °F 30 °F (2002)
Degree Days  
Heating Degree Days 12 14  
Month to date heating degree days 193 175  
Since 1 July heating degree days 345 319  
Cooling Degree Days 0 0  
Month to date cooling degree days 0 10  
Year to date cooling degree days 650 752  
Growing Degree Days 4 (Base 50)    
Moisture  
Dew Point 37 °F    
Average Humidity 58    
Maximum Humidity 86    
Minimum Humidity 29    
Precipitation  
Precipitation 0.00 in 0.08 in 0.59 in (1993)
Month to date precipitation 3.33 1.19  
Sea Level Pressure  
Sea Level Pressure 29.93 in    
Wind  
Wind Speed 10 mph (NNW)    
Max Wind Speed 21 mph    
Max Gust Speed 26 mph    
Visibility 10 miles    
Events Rain    
T = Trace of Precipitation, MM = Missing Value Source: NWS Daily Summary

Daily Weather History Graph

Daily Weather History Graph

Search for Another Location

Airport or City:

Trip Planner

Search our weather history database for the weather conditions in past years. The results will help you decide how hot, cold, wet, or windy it might be!

Date:

Astronomy

Oct. 15, 2014 Rise Set
Actual Time 7:26 AM CDT 6:32 PM CDT
Civil Twilight 6:58 AM CDT 7:00 PM CDT
Nautical Twilight 6:26 AM CDT 7:33 PM CDT
Astronomical Twilight 5:54 AM CDT 8:05 PM CDT
Moon No Moon Rise 2:11 PM CDT (10/15)
Length of Visible Light 12h 02m
Length of Day
11h 05m
Waning Gibbous, 51% of the Moon is Illuminated
Oct 15
Waning Gibbous
Oct 15
Last Quarter
Oct 23
New
Oct 30
First Quarter
Nov 6
Full

Hourly Weather History & Observations

Time (CDT) Temp. Windchill Dew Point Humidity Pressure Visibility Wind Dir Wind Speed Gust Speed Precip Events Conditions
12:53 AM 50.0 °F - 37.0 °F 61% 29.92 in 10.0 mi North 13.8 mph - N/A   Clear
1:53 AM 48.9 °F - 37.0 °F 64% 29.93 in 10.0 mi NNW 15.0 mph - N/A   Clear
2:53 AM 46.9 °F - 37.0 °F 68% 29.93 in 10.0 mi North 13.8 mph - N/A   Clear
3:53 AM 46.0 °F 40.2 °F 37.0 °F 71% 29.93 in 10.0 mi NNW 12.7 mph - N/A   Clear
4:53 AM 45.0 °F 38.9 °F 36.0 °F 71% 29.94 in 10.0 mi North 12.7 mph - N/A   Clear
5:53 AM 45.0 °F 38.5 °F 35.1 °F 68% 29.95 in 10.0 mi NNW 13.8 mph - N/A   Clear
6:53 AM 44.1 °F 38.1 °F 35.1 °F 71% 29.97 in 10.0 mi North 11.5 mph - N/A   Clear
7:53 AM 43.0 °F 36.8 °F 35.1 °F 74% 29.98 in 10.0 mi NNW 11.5 mph - N/A   Clear
8:53 AM 46.0 °F 40.2 °F 36.0 °F 68% 29.98 in 10.0 mi North 12.7 mph - N/A   Clear
9:53 AM 52.0 °F - 37.9 °F 59% 29.98 in 10.0 mi North 12.7 mph - N/A   Clear
10:53 AM 57.0 °F - 37.9 °F 49% 29.98 in 10.0 mi North 18.4 mph 23.0 mph N/A   Clear
11:53 AM 60.1 °F - 37.9 °F 44% 29.96 in 10.0 mi NNW 18.4 mph - N/A   Clear
12:53 PM 63.0 °F - 37.9 °F 40% 29.94 in 10.0 mi NNW 19.6 mph 24.2 mph N/A   Clear
1:53 PM 64.9 °F - 37.0 °F 36% 29.93 in 10.0 mi NNW 16.1 mph - N/A   Clear
2:53 PM 66.9 °F - 36.0 °F 32% 29.92 in 10.0 mi North 11.5 mph - N/A   Clear
3:53 PM 68.0 °F - 36.0 °F 31% 29.90 in 10.0 mi NNW 15.0 mph 19.6 mph N/A   Clear
4:53 PM 66.9 °F - 34.0 °F 30% 29.89 in 10.0 mi NNW 15.0 mph - N/A   Clear
5:53 PM 63.0 °F - 37.0 °F 38% 29.90 in 10.0 mi NNW 8.1 mph - N/A   Clear
6:53 PM 53.1 °F - 37.9 °F 57% 29.91 in 10.0 mi WNW 6.9 mph - 0.00 in Rain Light Rain
7:53 PM 46.0 °F 43.9 °F 39.0 °F 76% 29.91 in 10.0 mi WNW 4.6 mph - 0.00 in   Clear
8:53 PM 43.0 °F - 37.9 °F 82% 29.91 in 10.0 mi Calm Calm - N/A   Clear
9:53 PM 42.1 °F - 37.9 °F 85% 29.91 in 10.0 mi Calm Calm - N/A   Clear
10:53 PM 41.0 °F - 37.0 °F 86% 29.90 in 10.0 mi Calm Calm - N/A   Clear
11:53 PM 39.0 °F - 36.0 °F 89% 29.89 in 10.0 mi Calm Calm - N/A   Clear